N4XWC Weather Reports


time (UTC)temp
C
wind
direction
speed
KPH
gust
KPH
rain 1hr
cm
rain 24hr
cm
rain mn
cm
humidity
%
barometer
mb
20260831200421 32 128 1.6 3.2 0.00 0.00 0.00 59 1017.8
20260831200157 32 65 3.2 4.8 0.00 0.00 0.00 61 1017.8
20260831195919 32 92 1.6 3.2 0.00 0.00 0.00 60 1017.8
20260831195420 32 117 3.2 3.2 0.00 0.00 0.00 60 1017.9
20260831195156 32 13 0.0 1.6 0.00 0.00 0.00 64 1017.9
20260831194921 32 0 1.6 1.6 0.00 0.00 0.00 63 1017.9
20260831194419 32 233 0.0 0.0 0.00 0.00 0.00 62 1017.9
20260831194156 32 305 0.0 0.0 0.00 0.00 0.00 64 1018.1
20260831193920 31 298 0.0 1.6 0.00 0.00 0.00 62 1018.1
20260831193421 31 0 0.0 1.6 0.00 0.00 0.00 61 1018.1
20260831193157 31 56 3.2 4.8 0.00 0.00 0.00 65 1018.1
20260831192919 31 86 3.2 3.2 0.00 0.00 0.00 65 1018.1
20260831192420 31 73 1.6 3.2 0.00 0.00 0.00 66 1018.3
20260831192156 31 83 3.2 3.2 0.00 0.00 0.00 65 1018.3
20260831191920 31 38 1.6 8.0 0.00 0.00 0.00 65 1018.3
20260831191419 31 37 1.6 3.2 0.00 0.00 0.00 65 1018.3
20260831191156 31 102 6.4 6.4 0.00 0.00 0.00 64 1018.5
20260831190920 31 21 3.2 3.2 0.00 0.00 0.00 65 1018.5
20260831190420 31 316 0.0 3.2 0.00 0.00 0.00 64 1018.5
20260831190157 31 44 0.0 3.2 0.00 0.00 0.00 64 1018.5
20260831185919 31 66 8.0 8.0 0.00 0.00 0.00 64 1018.5
20260831185420 31 353 1.6 1.6 0.00 0.00 0.00 65 1018.6
20260831185157 31 119 0.0 0.0 0.00 0.00 0.00 65 1018.6
20260831184919 31 119 0.0 1.6 0.00 0.00 0.00 65 1018.6
20260831184420 31 97 3.2 3.2 0.00 0.00 0.00 68 1018.6
20260831184157 31 51 1.6 3.2 0.00 0.00 0.00 67 1018.8
20260831183921 31 73 3.2 4.8 0.00 0.00 0.00 66 1018.8
20260831183419 31 0 6.4 8.0 0.00 0.00 0.00 65 1018.8
20260831183156 31 40 4.8 8.0 0.00 0.00 0.00 65 1018.8
20260831182920 31 68 4.8 4.8 0.00 0.00 0.00 65 1018.8
20260831182420 31 0 3.2 6.4 0.00 0.00 0.00 66 1018.9
20260831182156 31 0 4.8 8.0 0.00 0.00 0.00 64 1018.9
20260831181920 31 34 3.2 6.4 0.00 0.00 0.00 64 1018.9
20260831181419 31 49 6.4 8.0 0.00 0.00 0.00 66 1018.9
20260831181155 31 37 6.4 8.0 0.00 0.00 0.00 66 1019.1
20260831180919 31 107 0.0 0.0 0.00 0.00 0.00 65 1019.1
20260831180420 31 147 3.2 4.8 0.00 0.00 0.00 63 1019.1
20260831180157 31 148 1.6 4.8 0.00 0.00 0.00 62 1019.1
20260831175919 31 167 3.2 6.4 0.00 0.00 0.00 61 1019.1
20260831175420 31 140 3.2 3.2 0.00 0.00 0.00 62 1019.2
20260831175307 31 168 0.0 1.6 0.00 0.00 0.00 63 1019.2
20260831175157 31 168 0.0 1.6 0.00 0.00 0.00 63 1019.2
20260831174919 31 160 3.2 3.2 0.00 0.00 0.00 67 1019.2
20260831174420 31 268 0.0 0.0 0.00 0.00 0.00 66 1019.2
20260831174155 31 261 0.0 0.0 0.00 0.00 0.00 67 1019.4
20260831173919 31 329 0.0 1.6 0.00 0.00 0.00 67 1019.4
20260831173419 31 0 1.6 3.2 0.00 0.00 0.00 65 1019.4
20260831173229 31 148 0.0 3.2 0.00 0.00 0.00 68 1019.4
20260831173156 31 148 0.0 3.2 0.00 0.00 0.00 68 1019.4
20260831172920 31 140 4.8 4.8 0.00 0.00 0.00 68 1019.4
20260831172420 31 199 0.0 1.6 0.00 0.00 0.00 68 1019.6
20260831172157 31 210 3.2 4.8 0.00 0.00 0.00 71 1019.6
20260831171919 31 206 0.0 0.0 0.00 0.00 0.00 67 1019.6
20260831171420 31 172 0.0 0.0 0.00 0.00 0.00 65 1019.6
20260831171156 31 234 0.0 1.6 0.00 0.00 0.00 65 1019.6
20260831170920 31 243 1.6 1.6 0.00 0.00 0.00 64 1019.6
20260831170419 31 219 4.8 4.8 0.00 0.00 0.00 64 1019.6
20260831170229 31 220 3.2 4.8 0.00 0.00 0.00 65 1019.6
20260831170156 31 220 3.2 4.8 0.00 0.00 0.00 65 1019.6
20260831165919 31 181 3.2 3.2 0.00 0.00 0.00 67 1019.6
20260831165419 31 152 0.0 1.6 0.00 0.00 0.00 68 1019.7
20260831165157 31 212 0.0 1.6 0.00 0.00 0.00 67 1019.7
20260831164919 31 232 1.6 3.2 0.00 0.00 0.00 66 1019.7
20260831164420 31 178 1.6 1.6 0.00 0.00 0.00 67 1019.7
20260831164156 31 271 0.0 0.0 0.00 0.00 0.00 67 1020.0
20260831163921 31 333 1.6 3.2 0.00 0.00 0.00 69 1020.0
20260831163420 31 128 0.0 0.0 0.00 0.00 0.00 67 1020.0
20260831163155 31 14 1.6 1.6 0.00 0.00 0.00 67 1020.0
20260831162920 30 244 0.0 1.6 0.00 0.00 0.00 66 1020.0
20260831162420 30 109 4.8 8.0 0.00 0.00 0.00 67 1020.0
20260831162157 30 4 1.6 1.6 0.00 0.00 0.00 72 1020.0
20260831161919 30 270 0.0 0.0 0.00 0.00 0.00 73 1020.0
20260831161420 30 301 1.6 1.6 0.00 0.00 0.00 71 1020.0
20260831161157 30 278 0.0 1.6 0.00 0.00 0.00 69 1020.1
20260831160920 30 261 1.6 3.2 0.00 0.00 0.00 69 1020.1
20260831160419 30 257 0.0 0.0 0.00 0.00 0.00 68 1020.1
20260831160156 30 185 0.0 0.0 0.00 0.00 0.00 68 1020.1
20260831155919 30 185 0.0 0.0 0.00 0.00 0.00 68 1020.1
20260831155419 30 126 1.6 1.6 0.00 0.00 0.00 67 1020.1
20260831155156 30 131 0.0 0.0 0.00 0.00 0.00 67 1020.1
20260831154920 30 131 1.6 3.2 0.00 0.00 0.00 69 1020.1
20260831154419 30 158 1.6 1.6 0.00 0.00 0.00 70 1020.1
20260831154156 30 0 0.0 3.2 0.00 0.00 0.00 70 1020.0
20260831153919 30 116 0.0 0.0 0.00 0.00 0.00 72 1020.0
20260831153420 30 322 0.0 0.0 0.00 0.00 0.00 72 1020.0
20260831153155 30 178 0.0 0.0 0.00 0.00 0.00 73 1020.0
20260831152920 30 178 0.0 1.6 0.00 0.00 0.00 73 1020.0
20260831152420 30 193 0.0 0.0 0.00 0.00 0.00 74 1020.1
20260831152155 30 193 0.0 0.0 0.00 0.00 0.00 74 1020.1
20260831151920 29 193 0.0 0.0 0.00 0.00 0.00 74 1020.1
20260831151421 29 205 0.0 0.0 0.00 0.00 0.00 76 1020.1
20260831151156 29 203 3.2 4.8 0.00 0.00 0.00 76 1020.1
20260831150919 28 107 0.0 0.0 0.00 0.00 0.00 76 1020.1
20260831150420 28 141 0.0 3.2 0.00 0.00 0.00 77 1020.1
20260831150157 28 134 4.8 4.8 0.00 0.00 0.00 80 1020.1
20260831145920 28 195 0.0 1.6 0.00 0.00 0.00 80 1020.1
20260831145420 28 234 0.0 1.6 0.00 0.00 0.00 80 1020.2
20260831145155 28 186 0.0 1.6 0.00 0.00 0.00 80 1020.2
20260831144921 28 186 0.0 0.0 0.00 0.00 0.00 81 1020.2
20260831144419 28 209 1.6 3.2 0.00 0.00 0.00 81 1020.2
20260831144157 27 229 3.2 3.2 0.00 0.00 0.00 81 1020.1
20260831143920 27 212 3.2 3.2 0.00 0.00 0.00 83 1020.1
20260831143421 27 171 1.6 3.2 0.00 0.00 0.00 84 1020.1
20260831143156 27 160 1.6 4.8 0.00 0.00 0.00 85 1020.1
20260831142919 27 148 0.0 0.0 0.00 0.00 0.00 85 1020.1
20260831142420 27 161 0.0 1.6 0.00 0.00 0.00 85 1020.1
20260831142157 27 193 1.6 4.8 0.00 0.00 0.00 86 1020.1
20260831141919 27 143 1.6 3.2 0.00 0.00 0.00 86 1020.1
20260831141420 26 168 0.0 0.0 0.00 0.00 0.00 86 1020.1
20260831141156 26 109 0.0 3.2 0.00 0.00 0.00 87 1020.2
20260831140921 26 150 1.6 3.2 0.00 0.00 0.00 87 1020.2
20260831140419 26 145 0.0 0.0 0.00 0.00 0.00 88 1020.2
20260831140158 26 145 0.0 1.6 0.00 0.00 0.00 88 1020.2
20260831135920 26 131 0.0 0.0 0.00 0.00 0.00 88 1020.2
20260831135421 26 185 0.0 3.2 0.00 0.00 0.00 89 1020.2
20260831135156 26 203 0.0 0.0 0.00 0.00 0.00 89 1020.2
20260831134920 26 179 0.0 0.0 0.00 0.00 0.00 89 1020.2
20260831134419 26 217 0.0 1.6 0.00 0.00 0.00 89 1020.2
20260831134156 26 165 1.6 4.8 0.00 0.00 0.00 90 1020.3
20260831133919 25 203 0.0 0.0 0.00 0.00 0.00 90 1020.3
20260831133420 25 182 0.0 3.2 0.00 0.00 0.00 91 1020.3
20260831133155 25 161 1.6 4.8 0.00 0.00 0.00 92 1020.3
20260831132919 25 121 1.6 1.6 0.00 0.00 0.00 92 1020.3
20260831132419 25 141 4.8 4.8 0.00 0.00 0.00 94 1020.2
20260831132157 25 164 1.6 3.2 0.00 0.00 0.00 95 1020.2
20260831131919 25 145 4.8 4.8 0.00 0.00 0.00 95 1020.2
20260831131420 24 128 0.0 4.8 0.00 0.00 0.00 97 1020.2
20260831131155 24 100 3.2 3.2 0.00 0.00 0.00 98 1020.1
20260831130920 24 89 6.4 6.4 0.00 0.00 0.00 98 1020.1
20260831130419 24 168 0.0 3.2 0.00 0.00 0.00 99 1020.1
20260831130159 23 136 0.0 1.6 0.00 0.00 0.00 100 1020.1
20260831125920 23 123 0.0 3.2 0.00 0.00 0.00 100 1020.1
20260831125419 23 131 1.6 6.4 0.00 0.00 0.00 100 1020.1
20260831125157 23 117 1.6 4.8 0.00 0.00 0.00 100 1020.1
20260831124920 23 167 0.0 4.8 0.00 0.00 0.00 100 1020.1
20260831124419 23 131 4.8 4.8 0.00 0.00 0.00 100 1020.1
20260831124156 23 154 3.2 3.2 0.00 0.00 0.00 100 1019.9
20260831123919 23 164 0.0 3.2 0.00 0.00 0.00 100 1019.9
20260831123420 23 164 3.2 4.8 0.00 0.00 0.00 100 1019.9
20260831123200 23 134 3.2 4.8 0.00 0.00 0.00 100 1019.9
20260831122921 23 138 0.0 3.2 0.00 0.00 0.00 100 1019.9
20260831122419 22 148 0.0 1.6 0.00 0.00 0.00 100 1019.6
20260831122156 22 150 0.0 0.0 0.00 0.00 0.00 100 1019.6
20260831121920 22 134 0.0 1.6 0.00 0.00 0.00 100 1019.6
20260831121420 22 120 0.0 0.0 0.00 0.00 0.00 100 1019.6
20260831121158 22 117 0.0 0.0 0.00 0.00 0.00 100 1019.5
20260831120920 22 120 1.6 1.6 0.00 0.00 0.00 100 1019.5
20260831120421 22 114 0.0 0.0 0.00 0.00 0.00 100 1019.5
20260831120156 22 117 1.6 1.6 0.00 0.00 0.00 100 1019.5
20260831115919 22 130 1.6 1.6 0.00 0.00 0.00 100 1019.5
20260831115419 22 124 1.6 4.8 0.00 0.00 0.00 100 1019.2
20260831115158 22 162 0.0 3.2 0.00 0.00 0.00 100 1019.2
20260831114920 22 126 1.6 3.2 0.00 0.00 0.00 100 1019.2
20260831114420 22 121 1.6 3.2 0.00 0.00 0.00 100 1019.2
20260831114200 22 143 1.6 1.6 0.00 0.00 0.00 100 1019.0
20260831113919 22 151 1.6 3.2 0.00 0.00 0.00 100 1019.0
20260831113420 22 150 1.6 1.6 0.00 0.00 0.00 100 1019.0
20260831113157 22 147 1.6 1.6 0.00 0.00 0.00 100 1019.0
20260831112920 22 161 1.6 3.2 0.00 0.00 0.00 100 1019.0
20260831112421 22 140 1.6 3.2 0.00 0.00 0.00 100 1018.7
20260831112200 22 134 1.6 1.6 0.00 0.00 0.00 100 1018.7
20260831111920 22 123 1.6 1.6 0.00 0.00 0.00 100 1018.7
20260831111420 22 133 1.6 1.6 0.00 0.00 0.00 100 1018.7
20260831111155 22 124 1.6 1.6 0.00 0.00 0.00 100 1018.3
20260831110921 22 147 0.0 3.2 0.00 0.00 0.00 100 1018.3
20260831110419 22 141 1.6 1.6 0.00 0.00 0.00 100 1018.3
20260831110157 22 128 0.0 3.2 0.00 0.00 0.00 100 1018.3
20260831105920 22 158 0.0 4.8 0.00 0.00 0.00 100 1018.3
20260831105421 22 106 1.6 1.6 0.00 0.00 0.00 100 1018.2
20260831105156 22 144 1.6 1.6 0.00 0.00 0.00 100 1018.2
20260831104919 22 114 1.6 3.2 0.00 0.00 0.00 100 1018.2
20260831104421 22 140 3.2 3.2 0.00 0.00 0.00 100 1018.2
20260831104156 22 151 1.6 1.6 0.00 0.00 0.00 100 1018.1
20260831103920 22 141 0.0 4.8 0.00 0.00 0.00 100 1018.1
20260831103419 22 147 1.6 3.2 0.00 0.00 0.00 100 1018.1
20260831103155 22 151 0.0 1.6 0.00 0.00 0.00 100 1018.1
20260831102920 22 148 0.0 1.6 0.00 0.00 0.00 100 1018.1
20260831102421 23 148 0.0 0.0 0.00 0.00 0.00 99 1018.0
20260831102311 23 120 0.0 3.2 0.00 0.00 0.00 99 1018.0
20260831102158 23 120 0.0 3.2 0.00 0.00 0.00 99 1018.0
20260831101919 23 164 1.6 3.2 0.00 0.00 0.00 99 1018.0
20260831101420 23 157 0.0 1.6 0.00 0.00 0.00 98 1018.0
20260831101156 23 161 1.6 1.6 0.00 0.00 0.00 98 1017.9
20260831100921 23 150 4.8 4.8 0.00 0.00 0.00 98 1017.9
20260831100419 23 154 1.6 3.2 0.00 0.00 0.00 98 1017.9
20260831100255 23 150 0.0 3.2 0.00 0.00 0.00 98 1017.9
20260831100156 23 150 0.0 3.2 0.00 0.00 0.00 98 1017.9
20260831095920 23 164 0.0 4.8 0.00 0.00 0.00 98 1017.9
20260831095421 23 141 1.6 3.2 0.00 0.00 0.00 97 1017.9
20260831095157 23 143 4.8 4.8 0.00 0.00 0.00 97 1017.9
20260831094919 23 155 3.2 3.2 0.00 0.00 0.00 97 1017.9
20260831094419 23 147 3.2 3.2 0.00 0.00 0.00 97 1017.9
20260831094229 23 152 0.0 3.2 0.00 0.00 0.00 97 1017.9
20260831094156 23 152 0.0 3.2 0.00 0.00 0.00 97 1017.9
20260831093919 23 145 0.0 3.2 0.00 0.00 0.00 97 1017.9
20260831093420 23 136 0.0 3.2 0.00 0.00 0.00 97 1017.9
20260831093157 23 143 1.6 3.2 0.00 0.00 0.00 97 1017.9
20260831092919 23 112 0.0 0.0 0.00 0.00 0.00 97 1017.9
20260831092419 23 117 0.0 0.0 0.00 0.00 0.00 97 1017.9
20260831092243 23 106 0.0 0.0 0.00 0.00 0.00 97 1017.9
20260831092156 23 106 0.0 0.0 0.00 0.00 0.00 97 1017.9
20260831091920 23 123 0.0 0.0 0.00 0.00 0.00 97 1017.9
20260831091419 23 130 0.0 0.0 0.00 0.00 0.00 98 1017.9
20260831091158 23 124 0.0 1.6 0.00 0.00 0.00 98 1017.7
20260831090920 23 126 0.0 1.6 0.00 0.00 0.00 98 1017.7
20260831090420 23 121 1.6 3.2 0.00 0.00 0.00 98 1017.7
20260831090157 23 113 0.0 0.0 0.00 0.00 0.00 98 1017.7
20260831085919 23 113 0.0 0.0 0.00 0.00 0.00 98 1017.7
20260831085419 23 113 0.0 1.6 0.00 0.00 0.00 98 1017.6
20260831085157 23 114 1.6 1.6 0.00 0.00 0.00 98 1017.6
20260831084920 23 123 0.0 0.0 0.00 0.00 0.00 98 1017.6
20260831084419 23 107 0.0 0.0 0.00 0.00 0.00 98 1017.6
20260831084157 23 107 0.0 0.0 0.00 0.00 0.00 98 1017.5
20260831083919 23 116 0.0 0.0 0.00 0.00 0.00 98 1017.5
20260831083420 23 113 0.0 0.0 0.00 0.00 0.00 98 1017.5
20260831083158 23 112 0.0 4.8 0.00 0.00 0.00 98 1017.5
20260831082919 23 138 3.2 3.2 0.00 0.00 0.00 98 1017.5
20260831082419 23 193 1.6 3.2 0.00 0.00 0.00 98 1017.4
20260831082156 23 143 1.6 1.6 0.00 0.00 0.00 98 1017.4
20260831081920 23 155 0.0 3.2 0.00 0.00 0.00 98 1017.4
20260831081419 23 127 0.0 0.0 0.00 0.00 0.00 98 1017.4
20260831081156 23 145 0.0 0.0 0.00 0.00 0.00 98 1017.5
20260831080919 23 147 0.0 0.0 0.00 0.00 0.00 97 1017.5
20260831080420 23 158 0.0 0.0 0.00 0.00 0.00 98 1017.5
20260831080158 23 157 0.0 0.0 0.00 0.00 0.00 98 1017.5
20260831075919 23 150 0.0 0.0 0.00 0.00 0.00 98 1017.5
20260831075419 23 148 0.0 0.0 0.00 0.00 0.00 98 1017.5
20260831075156 23 144 0.0 0.0 0.00 0.00 0.00 98 1017.5
20260831074920 23 143 0.0 0.0 0.00 0.00 0.00 98 1017.5
20260831074419 23 130 0.0 1.6 0.00 0.00 0.00 97 1017.5
20260831074156 23 151 0.0 3.2 0.00 0.00 0.00 97 1017.5
20260831073919 23 162 0.0 1.6 0.00 0.00 0.00 97 1017.5
20260831073419 23 126 1.6 4.8 0.00 0.00 0.00 97 1017.5
20260831073156 23 148 1.6 4.8 0.00 0.00 0.00 97 1017.5
20260831072920 23 160 0.0 3.2 0.00 0.00 0.00 97 1017.5
20260831072420 23 160 0.0 4.8 0.00 0.00 0.00 97 1017.4
20260831072157 23 160 1.6 4.8 0.00 0.00 0.00 97 1017.4
20260831071919 23 148 1.6 3.2 0.00 0.00 0.00 97 1017.4
20260831071420 23 147 0.0 1.6 0.00 0.00 0.00 96 1017.4
20260831071155 23 150 0.0 1.6 0.00 0.00 0.00 96 1017.5
20260831070919 23 151 1.6 3.2 0.00 0.00 0.00 96 1017.5
20260831070419 23 154 0.0 4.8 0.00 0.00 0.00 96 1017.5
20260831070157 23 158 0.0 0.0 0.00 0.00 0.00 96 1017.5
20260831065920 23 179 1.6 1.6 0.00 0.00 0.00 96 1017.5
20260831065420 23 143 0.0 6.4 0.00 0.00 0.00 95 1017.5
20260831065157 23 138 3.2 3.2 0.00 0.00 0.00 95 1017.5
20260831064919 23 147 3.2 4.8 0.00 0.00 0.00 95 1017.5
20260831064419 23 143 1.6 1.6 0.00 0.00 0.00 94 1017.5
20260831064155 23 175 1.6 3.2 0.00 0.00 0.00 94 1017.5
20260831063919 23 124 0.0 3.2 0.00 0.00 0.00 94 1017.5
20260831063420 23 144 0.0 4.8 0.00 0.00 0.00 94 1017.5
20260831063156 23 130 1.6 3.2 0.00 0.00 0.00 94 1017.5
20260831062919 23 106 1.6 3.2 0.00 0.00 0.00 94 1017.5
20260831062420 23 123 1.6 4.8 0.00 0.00 0.00 93 1017.5
20260831062157 23 143 3.2 3.2 0.00 0.00 0.00 93 1017.5
20260831061919 23 162 0.0 4.8 0.00 0.00 0.00 93 1017.5
20260831061420 24 119 0.0 0.0 0.00 0.00 0.00 93 1017.5
20260831061157 24 141 0.0 0.0 0.00 0.00 0.00 93 1017.7
20260831060920 24 133 4.8 4.8 0.00 0.00 0.00 93 1017.7
20260831060419 24 127 1.6 1.6 0.00 0.00 0.00 92 1017.7
20260831060155 24 124 3.2 3.2 0.00 0.00 0.00 92 1017.7
20260831055920 24 128 3.2 3.2 0.00 0.00 0.00 92 1017.7
20260831055419 24 128 0.0 3.2 0.00 0.00 0.00 92 1017.6
20260831055156 24 117 1.6 3.2 0.00 0.00 0.00 92 1017.6
20260831054919 24 143 0.0 1.6 0.00 0.00 0.00 92 1017.6
20260831054420 24 157 3.2 4.8 0.00 0.00 0.00 92 1017.6
20260831054158 24 110 1.6 3.2 0.00 0.00 0.00 92 1017.6
20260831053920 24 85 3.2 3.2 0.00 0.00 0.00 91 1017.6
20260831053419 24 131 3.2 3.2 0.00 0.00 0.00 91 1017.6
20260831053156 24 109 0.0 4.8 0.00 0.00 0.00 91 1017.6
20260831052919 24 123 3.2 4.8 0.00 0.00 0.00 91 1017.6
20260831052420 24 127 3.2 3.2 0.00 0.00 0.00 91 1017.5
20260831052155 24 134 4.8 4.8 0.00 0.00 0.00 91 1017.5
20260831051919 24 138 1.6 4.8 0.00 0.00 0.00 91 1017.5
20260831051419 24 114 3.2 4.8 0.00 0.00 0.00 91 1017.5
20260831051157 25 124 1.6 4.8 0.00 0.00 0.00 91 1017.6
20260831050920 25 114 3.2 3.2 0.00 0.00 0.00 91 1017.6
20260831050420 25 121 3.2 3.2 0.00 0.00 0.00 90 1017.6
20260831050159 25 151 1.6 4.8 0.00 0.00 0.00 90 1017.6
20260831045920 25 124 1.6 1.6 0.00 0.00 0.00 89 1017.6
20260831045419 25 134 3.2 3.2 0.00 0.00 0.00 89 1017.6
20260831045156 25 143 4.8 4.8 0.00 0.00 0.00 89 1017.6
20260831044920 25 130 1.6 1.6 0.00 0.00 0.00 88 1017.6
20260831044420 25 126 1.6 3.2 0.00 0.00 0.00 87 1017.6
20260831044156 25 120 0.0 3.2 0.00 0.00 0.00 87 1017.7
20260831043919 25 128 1.6 4.8 0.00 0.00 0.00 87 1017.7
20260831043420 25 107 1.6 3.2 0.00 0.00 0.00 87 1017.7
20260831043158 25 102 3.2 3.2 0.00 0.00 0.00 87 1017.7
20260831042920 25 88 1.6 1.6 0.00 0.00 0.00 87 1017.7
20260831042420 25 95 1.6 4.8 0.00 0.00 0.00 87 1017.8
20260831042156 25 109 1.6 3.2 0.00 0.00 0.00 86 1017.8
20260831041921 25 100 1.6 1.6 0.00 0.00 0.00 86 1017.8
20260831041419 25 92 0.0 3.2 0.00 0.00 0.00 86 1017.8
20260831041157 25 103 1.6 4.8 0.00 0.00 0.00 86 1017.8
20260831040920 25 110 3.2 4.8 0.00 0.00 0.00 86 1017.8
20260831040420 25 92 3.2 3.2 0.00 0.00 0.00 86 1017.8
20260831040159 25 110 3.2 3.2 0.00 0.00 0.00 86 1017.8
20260831035920 25 109 4.8 4.8 0.00 0.00 0.00 86 1017.8
20260831035421 25 88 1.6 4.8 0.00 0.00 0.00 86 1017.9
20260831035156 25 83 1.6 4.8 0.00 0.00 0.00 86 1017.9
20260831034920 25 90 4.8 6.4 0.00 0.00 0.00 87 1017.9
20260831034420 25 65 3.2 4.8 0.00 0.00 0.00 87 1017.9
20260831034156 25 82 4.8 4.8 0.00 0.00 0.00 87 1017.9
20260831033921 25 85 3.2 4.8 0.00 0.00 0.00 87 1017.9
20260831033419 25 113 3.2 4.8 0.00 0.00 0.00 87 1017.9
20260831033157 25 97 3.2 3.2 0.00 0.00 0.00 87 1017.9
20260831032920 25 100 1.6 4.8 0.00 0.00 0.00 87 1017.9
20260831032421 25 99 1.6 3.2 0.00 0.00 0.00 87 1017.8
20260831032231 25 110 1.6 4.8 0.00 0.00 0.00 87 1017.8
20260831032156 25 110 1.6 4.8 0.00 0.00 0.00 87 1017.8
20260831031919 25 121 3.2 3.2 0.00 0.00 0.00 87 1017.8
20260831031420 25 96 1.6 3.2 0.00 0.00 0.00 87 1017.8
20260831031155 25 96 3.2 4.8 0.00 0.00 0.00 87 1017.9
20260831030919 25 120 1.6 4.8 0.00 0.00 0.00 87 1017.9
20260831030420 25 97 3.2 4.8 0.00 0.00 0.00 87 1017.9
20260831030155 25 102 3.2 4.8 0.00 0.00 0.00 87 1017.9
20260831025919 25 95 0.0 1.6 0.00 0.00 0.00 86 1017.9
20260831025419 25 119 3.2 3.2 0.00 0.00 0.00 86 1017.8
20260831025157 25 141 3.2 3.2 0.00 0.00 0.00 86 1017.8
20260831024920 25 131 0.0 3.2 0.00 0.00 0.00 86 1017.8
20260831024419 25 117 3.2 3.2 0.00 0.00 0.00 86 1017.8
20260831024156 25 114 3.2 4.8 0.00 0.00 0.00 86 1017.8
20260831023919 25 116 1.6 4.8 0.00 0.00 0.00 86 1017.8
20260831023420 25 102 1.6 4.8 0.00 0.00 0.00 86 1017.8
20260831023156 25 130 1.6 4.8 0.00 0.00 0.00 86 1017.8
20260831022919 25 120 1.6 3.2 0.00 0.00 0.00 86 1017.8
20260831022419 25 147 1.6 3.2 0.00 0.00 0.00 86 1017.6
20260831022158 26 127 0.0 4.8 0.00 0.00 0.00 86 1017.6
20260831021920 26 144 0.0 3.2 0.00 0.00 0.00 86 1017.6
20260831021310 26 133 3.2 3.2 0.00 0.00 0.00 86 1017.6
20260831020808 26 148 0.0 3.2 0.00 0.00 0.00 86 1017.6
20260831020309 26 117 4.8 4.8 0.00 0.00 0.00 86 1017.6
20260831015810 26 137 0.0 1.6 0.00 0.00 0.00 86 1017.5
20260831015308 26 158 3.2 3.2 0.00 0.00 0.00 86 1017.5
20260831014809 26 150 3.2 3.2 0.00 0.00 0.00 86 1017.5
20260831014310 26 119 0.0 3.2 0.00 0.00 0.00 86 1017.2
20260831013808 26 113 0.0 1.6 0.00 0.00 0.00 86 1017.2
20260831013310 26 148 0.0 1.6 0.00 0.00 0.00 85 1017.2
20260831012809 26 152 3.2 3.2 0.00 0.00 0.00 85 1017.0
20260831012309 26 130 1.6 3.2 0.00 0.00 0.00 84 1017.0
20260831011810 26 134 1.6 3.2 0.00 0.00 0.00 83 1017.0
20260831011310 26 154 3.2 3.2 0.00 0.00 0.00 83 1017.1
20260831010808 26 124 1.6 1.6 0.00 0.00 0.00 82 1017.1
20260831010309 27 151 3.2 3.2 0.00 0.00 0.00 82 1017.1
20260831005809 27 137 1.6 3.2 0.00 0.00 0.00 81 1017.1
20260831005310 27 86 1.6 3.2 0.00 0.00 0.00 81 1017.1
20260831004808 27 123 1.6 3.2 0.00 0.00 0.00 80 1017.1
20260831004309 27 121 1.6 1.6 0.00 0.00 0.00 80 1017.1
20260831003810 27 104 3.2 3.2 0.00 0.00 0.00 80 1017.1
20260831003308 27 106 4.8 4.8 0.00 0.00 0.00 80 1017.1
20260831002809 27 104 1.6 3.2 0.00 0.00 0.00 80 1017.1
20260831002310 27 97 1.6 3.2 0.00 0.00 0.00 80 1017.1
20260831001808 27 95 1.6 3.2 0.00 0.00 0.00 80 1017.1
20260831001309 27 88 3.2 3.2 0.00 0.00 0.00 79 1017.1
20260831000809 28 89 1.6 1.6 0.00 0.00 0.00 79 1017.1
20260831000310 28 96 3.2 3.2 0.00 0.00 0.00 78 1017.1
20260830235808 28 96 0.0 1.6 0.00 0.00 0.00 77 1017.1
20260830235308 28 96 3.2 3.2 0.00 0.00 0.00 76 1017.1
20260830234809 28 83 0.0 0.0 0.00 0.00 0.00 76 1017.1
20260830234309 28 97 3.2 4.8 0.00 0.00 0.00 76 1017.0
20260830233808 28 68 3.2 3.2 0.00 0.00 0.00 75 1017.0
20260830233309 28 93 3.2 4.8 0.00 0.00 0.00 75 1017.0
20260830232810 28 104 1.6 3.2 0.00 0.00 0.00 74 1016.9
20260830232308 28 56 1.6 3.2 0.00 0.00 0.00 74 1016.9
20260830231809 28 80 1.6 4.8 0.00 0.00 0.00 74 1016.9
20260830231310 29 96 3.2 3.2 0.00 0.00 0.00 74 1016.9
20260830230808 29 110 3.2 4.8 0.00 0.00 0.00 73 1016.9
20260830230308 29 79 1.6 6.4 0.00 0.00 0.00 74 1016.9
20260830225809 29 69 1.6 3.2 0.00 0.00 0.00 73 1017.0
20260830225309 29 165 1.6 3.2 0.00 0.00 0.00 72 1017.0
20260830224810 29 54 3.2 3.2 0.00 0.00 0.00 71 1017.0
20260830224309 29 90 1.6 4.8 0.00 0.00 0.00 71 1016.8
20260830223809 30 90 1.6 4.8 0.00 0.00 0.00 70 1016.8
20260830223309 30 58 3.2 4.8 0.00 0.00 0.00 70 1016.8
20260830222809 30 4 1.6 3.2 0.00 0.00 0.00 72 1016.9
20260830222309 30 80 0.0 3.2 0.00 0.00 0.00 72 1016.9
20260830221810 30 83 0.0 0.0 0.00 0.00 0.00 70 1016.9
20260830221308 30 114 0.0 3.2 0.00 0.00 0.00 69 1016.8
20260830220809 30 82 0.0 1.6 0.00 0.00 0.00 69 1016.8
20260830220310 30 141 3.2 4.8 0.00 0.00 0.00 68 1016.8
20260830215808 30 106 3.2 4.8 0.00 0.00 0.00 71 1017.0
20260830215310 30 82 1.6 4.8 0.00 0.00 0.00 66 1017.0
20260830214810 30 100 0.0 3.2 0.00 0.00 0.00 69 1017.0
20260830214308 30 127 0.0 1.6 0.00 0.00 0.00 69 1017.0
20260830213809 30 110 3.2 8.0 0.00 0.00 0.00 68 1017.0
20260830213310 30 42 3.2 3.2 0.00 0.00 0.00 67 1017.0
20260830212808 30 14 0.0 1.6 0.00 0.00 0.00 68 1017.1
20260830212309 30 66 3.2 8.0 0.00 0.00 0.00 69 1017.1
20260830211810 30 80 0.0 4.8 0.00 0.00 0.00 69 1017.1
20260830211308 30 86 0.0 3.2 0.00 0.00 0.00 67 1017.1
20260830210809 31 83 3.2 9.7 0.00 0.00 0.00 66 1017.1
20260830210310 31 79 1.6 4.8 0.00 0.00 0.00 65 1017.1
20260830205808 31 127 0.0 3.2 0.00 0.00 0.00 64 1017.3
20260830205309 31 17 1.6 1.6 0.00 0.00 0.00 64 1017.3
20260830204809 31 96 1.6 3.2 0.00 0.00 0.00 61 1017.3
20260830204308 31 88 6.4 8.0 0.00 0.00 0.00 64 1017.5
20260830203810 31 134 8.0 9.7 0.00 0.00 0.00 64 1017.5
20260830203309 31 335 0.0 0.0 0.00 0.00 0.00 66 1017.5
20260830202808 31 171 1.6 1.6 0.00 0.00 0.00 65 1017.7
20260830202309 30 121 1.6 3.2 0.00 0.00 0.00 67 1017.7
20260830201809 30 116 1.6 4.8 0.00 0.00 0.00 67 1017.7
20260830201308 30 48 3.2 3.2 0.00 0.00 0.00 67 1017.8
20260830200809 30 66 4.8 4.8 0.00 0.00 0.00 68 1017.8